[[{"header":{"parameterUnit":"m.s-1","parameterCategory":2,"la1":30.2991,"la2":30.254,"lo1":-89.0895,"lo2":-89.0444,"dy":0.0017,"dx":0.0017,"nx":28,"ny":28,"refTime":"2025-07-23T21:00:00:Z","depth":"0","parameterNumber":2,"parameterNumberName":"U-component_of_CURRENTS"},"data":[0,0,0,0,0,0,0,0,0,0,0,0,0,0,0,0,0,0,0,0,0,0,0,0,0,0,0,0,0,0,0,0,0,0,0,0,0,0,0,0,0,0,0,0,0,0,0,0,0,0,0,0,0,0,0,0,0,0,0.3032,0.3032,0,0.3057,0.3057,0.3057,0.3042,0.3041,0.304,0.304,0.3037,0.3037,0.3038,0,0,0,0,0,0,0,0,0,0,0,0,0,0.2982,0.2983,0.3032,0.3032,0.3033,0.3057,0.3057,0.3057,0.3042,0.3041,0.304,0.3039,0.3037,0.3037,0.3038,0,0,0,0,0,0,0,0,0,0,0,0,0,0.3004,0.2983,0.3032,0.3029,0.3029,0.3056,0.3057,0.3057,0.3042,0.3041,0.304,0.3039,0.3036,0.3037,0.3038,0.3061,0,0,0.304,0.304,0,0,0,0,0,0,0,0,0.3002,0.3005,0.3029,0.3029,0.3029,0.3046,0.3038,0.3057,0.3042,0.3036,0.304,0.3039,0.3039,0.3039,0.3045,0.3061,0.306,0.304,0.3041,0.3041,0.3041,0,0,0,0,0,0,0,0.3001,0.3004,0.304,0.3029,0.303,0.303,0.3032,0.3042,0.304,0.3036,0.3035,0.304,0.3038,0.3044,0.3044,0.306,0.304,0.3041,0.3041,0.3041,0.3145,0.3147,0,0,0,0,0,0,0.3001,0.3003,0.3039,0.3041,0.3015,0.3032,0.3034,0.3041,0.3041,0.3041,0.3041,0.304,0.3043,0.3043,0.3044,0.3096,0.3041,0.3042,0.3042,0.3142,0.3145,0.3148,0,0,0,0,0,0,0.3,0.3004,0.3038,0.3023,0.3028,0.3034,0.3041,0.3042,0.3051,0.3045,0.3044,0.3051,0.3042,0.3043,0.3068,0.3094,0.3042,0.3043,0.314,0.3143,0.3147,0.3183,0,0,0,0,0,0,0.2998,0.3004,0.301,0.3023,0.3029,0.3062,0.3042,0.3043,0.3056,0.3054,0.3053,0.3052,0.3042,0.3068,0.3069,0.3094,0.3043,0.3137,0.3141,0.3145,0.3179,0.3187,0.3194,0,0,0,0,0,0.2997,0.3006,0.301,0.3014,0.3036,0.3063,0.3066,0.3066,0.3057,0.3069,0.3074,0.3052,0.3096,0.307,0.3071,0.3097,0.3135,0.314,0.3145,0.3175,0.3185,0.3194,0,0,0,0,0,0,0.2987,0.3007,0.301,0.3025,0.3047,0.3061,0.3071,0.3074,0.3087,0.3086,0.3075,0.3075,0.3112,0.3107,0.3078,0.3145,0.3115,0.3121,0.3138,0.3147,0.3155,0.3167,0.3044,0,0,0,0,0,0.299,0.3002,0.3024,0.3038,0.305,0.3064,0.3074,0.308,0.3093,0.3098,0.3098,0.3111,0.3136,0.3141,0.316,0.3189,0.3232,0.3212,0.322,0.3226,0.3241,0.3353,0.3372,0.3165,0.3165,0.3165,0,0,0.2988,0.3003,0.3008,0.3037,0.3052,0.3073,0.3067,0.3091,0.311,0.3097,0.312,0.3138,0.3154,0.3191,0.3206,0.3185,0.3307,0.3233,0.3237,0.325,0.336,0.3381,0.3399,0.3168,0.3168,0.3167,0,0,0.2989,0.3008,0.3016,0.304,0.307,0.3086,0.3096,0.312,0.3131,0.3162,0.3168,0.3207,0.3224,0.325,0.3264,0.333,0.335,0.3335,0.3374,0.3482,0.35,0.3516,0.3589,0.3612,0.3332,0.3332,0.3332,0,0.2986,0.3011,0.3024,0.3044,0.3078,0.3092,0.3126,0.3135,0.3165,0.3218,0.3174,0.3273,0.3257,0.3344,0.3347,0.3346,0.3405,0.3329,0.3492,0.3509,0.3526,0.3597,0.3621,0.3334,0.3334,0.3334,0.3333,0,0.2992,0.3022,0.3035,0.3068,0.3101,0.3139,0.3166,0.3203,0.3221,0.3262,0.3354,0.3345,0.342,0.3408,0.3379,0.3495,0.35,0.3493,0.3464,0.3549,0.3618,0.3643,0.3337,0.3337,0.3336,0.3335,0,0,0.2965,0.3029,0.3034,0.3078,0.3132,0.3165,0.3215,0.3306,0.3378,0.3397,0.3506,0.3514,0.3548,0.3565,0.3553,0.3602,0.3726,0.3584,0.3588,0.3648,0.3962,0.3898,0.3919,0.3759,0.3763,0.3767,0.3961,0,0.2977,0.3036,0.3063,0.3134,0.3185,0.3241,0.3294,0.3378,0.3445,0.3545,0.3588,0.3664,0.3597,0.3627,0.3681,0.3731,0.3796,0.3673,0.3878,0.3884,0.3812,0.3947,0.3795,0.3951,0.3985,0.3989,0.3992,0,0.298,0.3032,0.3106,0.3223,0.3248,0.3281,0.3433,0.3484,0.3632,0.3698,0.3809,0.3839,0.393,0.3835,0.3996,0.393,0.3952,0.3965,0.3974,0.3921,0.3868,0.3876,0.3995,0.3896,0.403,0.4027,0.4025,0,0.2987,0.3073,0.3146,0.3179,0.3288,0.3343,0.3406,0.3548,0.3631,0.3802,0.3888,0.4025,0.4085,0.4161,0.4167,0.4112,0.4331,0.4271,0.4243,0.4237,0.4151,0.413,0.4191,0.4397,0.4397,0.4396,0.4396,0,0.3012,0.3069,0.3151,0.3188,0.3284,0.3361,0.3481,0.3576,0.3733,0.3853,0.3959,0.4057,0.4168,0.4279,0.4276,0.4355,0.4446,0.429,0.4306,0.4156,0.4134,0.4075,0.4036,0.4404,0.4402,0.4401,0.4399,0,0.3006,0.3062,0.3146,0.3253,0.3284,0.3351,0.3486,0.358,0.3733,0.3887,0.394,0.4143,0.4298,0.4387,0.4527,0.4494,0.4446,0.4552,0.4347,0.4334,0.4175,0.4143,0.4094,0.3964,0.4577,0.4577,0.4577,0,0.3012,0.3053,0.3159,0.3194,0.3233,0.3333,0.34,0.3561,0.3661,0.3911,0.3981,0.4191,0.4316,0.4533,0.4541,0.4614,0.4459,0.4484,0.4333,0.4185,0.4163,0.3979,0.3858,0.4237,0.4234,0.4232,0.423,0,0.3019,0.3049,0.3106,0.3175,0.3234,0.3304,0.3408,0.3483,0.3674,0.3796,0.397,0.4091,0.4328,0.4362,0.4476,0.4477,0.4278,0.4435,0.4362,0.3982,0.3711,0.3585,0.4069,0.4209,0.4211,0.4213,0.4214,0.4215,0.3011,0.3043,0.3103,0.3154,0.3206,0.3244,0.326,0.3381,0.3493,0.3644,0.3846,0.3963,0.4147,0.4294,0.4275,0.4172,0.4133,0.4043,0.4045,0.3891,0.3671,0.409,0.4187,0.4189,0.4191,0.4192,0.4193,0,0.3013,0.3038,0.3079,0.3116,0.3112,0.3169,0.3237,0.3226,0.3276,0.3472,0.36,0.3745,0.3833,0.3939,0.3958,0.3812,0.3598,0.3716,0.3435,0.3355,0.3824,0.3711,0.3611,0.3611,0.3611,0.3611,0.3611,0.3612,0.3027,0.3049,0.3052,0.3008,0.301,0.2962,0.2963,0.2961,0.3044,0.3118,0.3195,0.3343,0.3628,0.3797,0.3704,0.3598,0.3297,0.3154,0.3134,0.3493,0.3521,0.3549,0.3433,0.3276,0.3276,0.2487,0.2482,0.2478]},{"header":{"parameterUnit":"m.s-1","parameterCategory":2,"la1":30.2991,"la2":30.254,"lo1":-89.0895,"lo2":-89.0444,"dy":0.0017,"dx":0.0017,"nx":28,"ny":28,"refTime":"2025-07-23T21:00:00:Z","depth":"0","parameterNumber":3,"parameterNumberName":"V-component_of_CURRENTS"},"data":[0,0,0,0,0,0,0,0,0,0,0,0,0,0,0,0,0,0,0,0,0,0,0,0,0,0,0,0,0,0,0,0,0,0,0,0,0,0,0,0,0,0,0,0,0,0,0,0,0,0,0,0,0,0,0,0,0,0,0.0164,0.0163,0,0.0083,0.0082,0.0081,0.0028,0.0028,0.0028,0.0027,-0.0078,-0.008,-0.0083,0,0,0,0,0,0,0,0,0,0,0,0,0,0.0214,0.0214,0.0164,0.0163,0.0162,0.0083,0.0082,0.0081,0.0028,0.0028,0.0028,0.0027,-0.0077,-0.008,-0.0083,0,0,0,0,0,0,0,0,0,0,0,0,0,0.0167,0.0214,0.0164,0.0128,0.0124,0.0084,0.0082,0.008,0.0028,0.0028,0.0028,0.0027,-0.0076,-0.008,-0.0084,-0.0104,0,0,-0.0096,-0.0098,0,0,0,0,0,0,0,0,0.017,0.0165,0.0134,0.013,0.0126,0.0067,0.0061,0.0018,0.0028,0.0062,0.0027,0.0027,-0.003,-0.0038,-0.0055,-0.0109,-0.0114,-0.0096,-0.0099,-0.0101,-0.0102,0,0,0,0,0,0,0,0.0173,0.0168,0.0129,0.0133,0.0128,0.0096,0.009,0.0052,0.0016,0.0059,0.0056,0.005,-0.0033,-0.0051,-0.0058,-0.0115,-0.0096,-0.01,-0.0102,-0.0104,-0.0176,-0.0175,0,0,0,0,0,0,0.0191,0.0171,0.0132,0.0127,0.015,0.0096,0.0088,0.0085,0.0017,0.0007,0.0051,0.0048,-0.0044,-0.0053,-0.0062,-0.006,-0.0101,-0.0104,-0.0107,-0.0176,-0.0176,-0.0175,0,0,0,0,0,0,0.0192,0.0188,0.0135,0.0149,0.014,0.0096,0.0092,0.0083,0.0069,0.0011,0.0,0.0047,-0.0045,-0.0057,-0.0081,-0.0066,-0.0106,-0.011,-0.0177,-0.0176,-0.0176,-0.0075,0,0,0,0,0,0,0.0194,0.0189,0.0192,0.015,0.014,0.0124,0.0092,0.0082,0.0067,0.0063,0.0004,-0.0006,-0.0046,-0.0074,-0.0085,-0.0072,-0.0113,-0.0178,-0.0177,-0.0176,-0.0079,-0.0071,-0.0064,0,0,0,0,0,0.0196,0.0205,0.0193,0.0188,0.0146,0.0125,0.0117,0.0082,0.0068,0.0067,0.0031,-0.0004,-0.0076,-0.0077,-0.0089,-0.0077,-0.0178,-0.0177,-0.0176,-0.0083,-0.0073,-0.0064,0,0,0,0,0,0,0.0229,0.02,0.0185,0.0185,0.0163,0.0117,0.0113,0.009,0.006,0.0057,0.0002,-0.001,-0.0029,-0.0067,-0.0066,-0.0096,-0.0134,-0.0135,-0.0058,-0.005,-0.0042,-0.0009,-0.0116,0,0,0,0,0,0.0239,0.0237,0.0205,0.0205,0.0197,0.0157,0.0144,0.0123,0.0091,0.0077,0.0038,-0.0004,-0.0036,-0.0051,-0.0091,-0.0104,-0.0132,-0.0105,-0.0098,-0.0091,-0.0073,-0.0099,-0.0092,-0.0172,-0.0172,-0.0172,0,0,0.0251,0.0236,0.0234,0.0212,0.019,0.0194,0.0148,0.0137,0.0143,0.0071,0.0065,0.0018,-0.0035,-0.005,-0.0061,-0.0077,-0.0084,-0.009,-0.0083,-0.0068,-0.0097,-0.0089,-0.0082,-0.0171,-0.0171,-0.0171,0,0,0.0282,0.0263,0.0276,0.0265,0.0243,0.0222,0.0225,0.0188,0.0174,0.0158,0.0112,0.0083,0.0027,0.0001,-0.0021,0.0004,-0.0047,-0.0016,0.0054,0.0028,0.0035,0.004,0.0015,0.0018,-0.0008,-0.0007,-0.0007,0,0.0299,0.0316,0.0276,0.029,0.0297,0.0244,0.0272,0.0246,0.0206,0.0216,0.017,0.0111,0.0055,0.0057,0.0058,0.0023,-0.0001,0.0027,0.004,0.0045,0.0049,0.0022,0.0023,-0.0002,-0.0003,-0.0003,-0.0004,0,0.0342,0.036,0.0369,0.0374,0.0371,0.0386,0.0356,0.035,0.0323,0.0307,0.0295,0.0213,0.0187,0.0155,0.0108,0.0117,0.0088,0.0051,0.0024,0.0064,0.0031,0.0032,0.0005,0.0003,0.0001,0.0,0,0,0.0379,0.0399,0.0403,0.0444,0.0425,0.0442,0.0447,0.0462,0.0507,0.043,0.0472,0.0382,0.0344,0.0315,0.0249,0.0215,0.0206,0.0151,0.0148,0.0139,0.0153,0.0113,0.0108,0.0172,0.0172,0.0173,0.012,0,0.0434,0.0504,0.0484,0.0561,0.0608,0.0571,0.0595,0.0597,0.0589,0.0611,0.0521,0.0521,0.0404,0.0395,0.0341,0.0249,0.021,0.0224,0.0105,0.0102,0.0072,0.0109,0.0114,0.0066,0.0119,0.0119,0.0119,0,0.0494,0.0541,0.0626,0.0703,0.0718,0.074,0.0808,0.0827,0.0828,0.0822,0.0791,0.0718,0.0655,0.0542,0.0402,0.0417,0.0296,0.0207,0.0202,0.0134,0.0062,0.0032,0.0063,-0.0129,0.0118,0.0118,0.0118,0,0.0583,0.0652,0.0737,0.0756,0.081,0.0842,0.0872,0.0898,0.0955,0.0963,0.0997,0.0899,0.086,0.0698,0.0482,0.045,0.0326,0.0259,0.0109,0.0104,0.0071,0.0062,-0.0086,0.0161,0.0161,0.0161,0.0162,0,0.0674,0.0745,0.0789,0.0838,0.0948,0.0951,0.1069,0.1084,0.1138,0.1223,0.1115,0.1144,0.0895,0.0775,0.0561,0.0346,0.0383,0.0137,0.0094,0.0104,0.01,-0.0102,-0.0222,0.0159,0.016,0.016,0.0161,0,0.0764,0.0788,0.0895,0.0966,0.0992,0.1077,0.1181,0.1277,0.1308,0.141,0.141,0.1339,0.1186,0.093,0.0681,0.0467,0.0134,0.0162,0.0188,0.0149,-0.0182,-0.0297,-0.0501,-0.0583,-0.0003,-0.0004,-0.0005,0,0.0821,0.0884,0.0985,0.1049,0.1079,0.1195,0.1276,0.1348,0.1456,0.1527,0.1587,0.1478,0.1424,0.1062,0.0667,0.0314,0.0106,0.0079,0.0005,-0.0185,-0.0344,-0.0431,-0.0491,-0.0002,-0.0003,-0.0004,-0.0005,0,0.0932,0.0953,0.103,0.1153,0.1248,0.1378,0.15,0.1608,0.1694,0.1785,0.1872,0.1838,0.1483,0.1131,0.0639,0.0382,-0.0059,0.0051,-0.0148,-0.0352,-0.0453,-0.0556,0.0012,-0.0011,-0.0011,-0.001,-0.001,-0.0009,0.0999,0.1068,0.1151,0.1268,0.1381,0.1532,0.1651,0.1799,0.197,0.2118,0.2078,0.208,0.1556,0.0893,0.0527,-0.0127,-0.0144,-0.0331,-0.0451,-0.0519,-0.0611,-0.0057,-0.0131,-0.0131,-0.0131,-0.0131,-0.0131,0,0.1089,0.1152,0.1263,0.1398,0.1521,0.157,0.178,0.1914,0.2116,0.2261,0.2344,0.2077,0.1455,0.082,-0.0081,-0.0538,-0.0692,-0.0781,-0.0904,-0.0938,-0.0442,-0.0454,-0.0596,-0.0596,-0.0596,-0.0596,-0.0596,-0.0595,0.1144,0.1248,0.1293,0.1481,0.1576,0.1756,0.1878,0.2081,0.2236,0.2417,0.2428,0.2399,0.1882,0.0302,-0.0734,-0.0969,-0.1282,-0.1382,-0.1522,-0.1193,-0.1159,-0.1127,-0.1166,-0.1455,-0.1456,-0.1944,-0.1949,-0.1953]}],[{"header":{"parameterUnit":"m.s-1","parameterCategory":2,"la1":30.2991,"la2":30.254,"lo1":-89.0895,"lo2":-89.0444,"dy":0.0017,"dx":0.0017,"nx":28,"ny":28,"refTime":"2025-07-23T21:00:00:Z","depth":"2","parameterNumber":2,"parameterNumberName":"U-component_of_CURRENTS"},"data":[0,0,0,0,0,0,0,0,0,0,0,0,0,0,0,0,0,0,0,0,0,0,0,0,0,0,0,0,0,0,0,0,0,0,0,0,0,0,0,0,0,0,0,0,0,0,0,0,0,0,0,0,0,0,0,0,0,0,0.2772,0.2773,0,0.2808,0.2808,0.2808,0.281,0.281,0.2809,0.2809,0.2824,0.2824,0.2825,0,0,0,0,0,0,0,0,0,0,0,0,0,0.2706,0.2707,0.2772,0.2773,0.2773,0.2808,0.2808,0.2808,0.281,0.281,0.2809,0.2809,0.2824,0.2824,0.2825,0,0,0,0,0,0,0,0,0,0,0,0,0,0.2735,0.2707,0.2772,0.278,0.2781,0.2808,0.2808,0.2808,0.281,0.281,0.2809,0.2809,0.2823,0.2824,0.2825,0.2838,0,0,0.2828,0.2828,0,0,0,0,0,0,0,0,0.2734,0.2738,0.2778,0.2779,0.2781,0.2806,0.279,0.2818,0.281,0.2797,0.2809,0.2809,0.2817,0.2819,0.2824,0.2839,0.2839,0.2828,0.2829,0.2829,0.2829,0,0,0,0,0,0,0,0.2732,0.2736,0.2784,0.2779,0.2781,0.2782,0.2785,0.2795,0.2807,0.2798,0.2799,0.2806,0.2818,0.2823,0.2824,0.2839,0.2828,0.2829,0.2829,0.283,0.2925,0.2927,0,0,0,0,0,0,0.2732,0.2734,0.2783,0.2786,0.2758,0.2783,0.2787,0.2797,0.2807,0.2809,0.2806,0.2806,0.2821,0.2823,0.2825,0.2883,0.2829,0.283,0.283,0.2923,0.2926,0.2928,0,0,0,0,0,0,0.273,0.2736,0.2782,0.2762,0.2768,0.2785,0.2795,0.2797,0.2814,0.2814,0.2815,0.2822,0.2821,0.2823,0.2853,0.2882,0.283,0.2831,0.2921,0.2924,0.2927,0.2972,0,0,0,0,0,0,0.2728,0.2735,0.2746,0.2762,0.2769,0.2808,0.2796,0.2798,0.282,0.282,0.2828,0.2828,0.2821,0.2852,0.2854,0.2882,0.2832,0.2919,0.2922,0.2926,0.2968,0.2976,0.2983,0,0,0,0,0,0.2726,0.2739,0.2746,0.2752,0.2782,0.2809,0.2813,0.2822,0.2821,0.2835,0.2845,0.2829,0.2877,0.2854,0.2856,0.2885,0.2917,0.2921,0.2926,0.2965,0.2975,0.2983,0,0,0,0,0,0,0.2714,0.2741,0.2749,0.2769,0.2794,0.2811,0.2825,0.2833,0.2852,0.2855,0.2849,0.2852,0.2893,0.2886,0.2861,0.2927,0.2896,0.2901,0.2926,0.2935,0.2942,0.2949,0.2833,0,0,0,0,0,0.2718,0.2736,0.2762,0.2781,0.2795,0.2814,0.2827,0.2838,0.2856,0.2864,0.2871,0.2887,0.2912,0.292,0.2939,0.2968,0.2993,0.2992,0.3,0.3006,0.3016,0.3098,0.3114,0.2943,0.2943,0.2943,0,0,0.2717,0.2737,0.2745,0.278,0.2799,0.2823,0.2821,0.2851,0.2873,0.2863,0.2896,0.2916,0.2929,0.2968,0.2985,0.2964,0.3067,0.3012,0.3017,0.3023,0.3104,0.3121,0.3136,0.2946,0.2945,0.2945,0,0,0.2721,0.2746,0.276,0.2785,0.2822,0.2839,0.2852,0.2882,0.2898,0.2934,0.2942,0.2982,0.3004,0.3027,0.3039,0.3102,0.311,0.311,0.3145,0.3225,0.324,0.3253,0.3298,0.3315,0.3106,0.3106,0.3107,0,0.272,0.2747,0.277,0.2793,0.2824,0.2848,0.288,0.2897,0.2934,0.2974,0.2951,0.3039,0.3035,0.3107,0.3119,0.3119,0.3158,0.3104,0.3235,0.3249,0.3262,0.3305,0.3323,0.3109,0.3109,0.3109,0.3108,0,0.2733,0.2763,0.2778,0.2818,0.2852,0.2887,0.2922,0.2962,0.2987,0.3019,0.3102,0.311,0.3171,0.317,0.3152,0.3249,0.3246,0.324,0.3209,0.3282,0.3322,0.334,0.3113,0.3112,0.3111,0.3111,0,0,0.2709,0.2775,0.278,0.2819,0.2877,0.291,0.2963,0.3039,0.3105,0.313,0.322,0.3244,0.3273,0.329,0.3291,0.3332,0.3432,0.3319,0.3322,0.3357,0.3601,0.3537,0.355,0.3459,0.3463,0.3465,0.3589,0,0.2718,0.277,0.2805,0.287,0.291,0.297,0.3024,0.3097,0.3163,0.3252,0.3288,0.3368,0.3312,0.3358,0.3393,0.3437,0.3484,0.3398,0.353,0.3533,0.3464,0.357,0.3297,0.338,0.3606,0.3609,0.3612,0,0.2724,0.2762,0.2826,0.2928,0.2953,0.2997,0.3135,0.3191,0.3316,0.3377,0.3468,0.3505,0.358,0.3519,0.3626,0.3581,0.3597,0.3608,0.3614,0.3552,0.3504,0.3348,0.3405,0.3642,0.3639,0.3637,0.3635,0,0.2711,0.2788,0.2848,0.2878,0.2981,0.3041,0.3108,0.3238,0.3315,0.3478,0.3555,0.3657,0.3722,0.3765,0.3769,0.3726,0.3878,0.3829,0.3786,0.3781,0.3572,0.3542,0.3921,0.392,0.392,0.392,0.3919,0,0.2718,0.2768,0.2849,0.2881,0.2969,0.3052,0.3179,0.3267,0.3412,0.3512,0.3619,0.3704,0.3791,0.3869,0.385,0.388,0.3958,0.3821,0.3827,0.3578,0.3549,0.3788,0.377,0.3924,0.3923,0.3922,0.3922,0,0.2699,0.2753,0.2824,0.2928,0.2966,0.3033,0.319,0.3275,0.3427,0.3562,0.3617,0.3785,0.3892,0.3949,0.4045,0.3993,0.4022,0.401,0.3696,0.3662,0.3844,0.3828,0.3988,0.3987,0.3986,0.3986,0.3985,0,0.2699,0.2733,0.2832,0.2874,0.2923,0.3036,0.3104,0.3261,0.3355,0.3581,0.3628,0.3806,0.3874,0.4005,0.3996,0.401,0.4041,0.3755,0.3616,0.3871,0.3861,0.3846,0.3831,0.3352,0.3346,0.3341,0.3338,0,0.2695,0.273,0.2779,0.2853,0.2922,0.2996,0.311,0.3167,0.3348,0.3451,0.3585,0.3663,0.3822,0.3736,0.3796,0.3752,0.373,0.3662,0.4055,0.3376,0.3281,0.3268,0.3272,0.3297,0.3301,0.3304,0.3306,0.3308,0.2688,0.2703,0.2765,0.2829,0.2893,0.2922,0.2938,0.3046,0.3132,0.3215,0.3392,0.3407,0.3495,0.3441,0.3354,0.332,0.3557,0.3388,0.3398,0.3414,0.3317,0.3227,0.3213,0.3216,0.3219,0.3222,0.3224,0,0.2675,0.2685,0.2738,0.2773,0.2774,0.2852,0.2908,0.2876,0.2884,0.2995,0.3058,0.2854,0.2834,0.2913,0.2811,0.2835,0.2764,0.271,0.2582,0.2629,0.267,0.2528,0.2218,0.2214,0.221,0.2206,0,0,0.2669,0.2683,0.2686,0.2642,0.2658,0.262,0.261,0.2564,0.2608,0.2513,0.2503,0.2698,0.2852,0.2477,0.2461,0.2318,0.2439,0.2235,0.3061,0.296,0.2994,0.3103,0.2947,0,0,0,0,0]},{"header":{"parameterUnit":"m.s-1","parameterCategory":2,"la1":30.2991,"la2":30.254,"lo1":-89.0895,"lo2":-89.0444,"dy":0.0017,"dx":0.0017,"nx":28,"ny":28,"refTime":"2025-07-23T21:00:00:Z","depth":"2","parameterNumber":3,"parameterNumberName":"V-component_of_CURRENTS"},"data":[0,0,0,0,0,0,0,0,0,0,0,0,0,0,0,0,0,0,0,0,0,0,0,0,0,0,0,0,0,0,0,0,0,0,0,0,0,0,0,0,0,0,0,0,0,0,0,0,0,0,0,0,0,0,0,0,0,0,0.0047,0.0046,0,-0.0027,-0.0028,-0.0029,-0.0078,-0.0078,-0.0078,-0.0079,-0.0175,-0.0177,-0.018,0,0,0,0,0,0,0,0,0,0,0,0,0,0.0086,0.0086,0.0047,0.0046,0.0045,-0.0027,-0.0028,-0.0029,-0.0078,-0.0078,-0.0079,-0.0079,-0.0174,-0.0177,-0.018,0,0,0,0,0,0,0,0,0,0,0,0,0,0.0044,0.0086,0.0047,0.0014,0.001,-0.0026,-0.0028,-0.003,-0.0078,-0.0078,-0.0079,-0.0079,-0.0173,-0.0177,-0.018,-0.0199,0,0,-0.0191,-0.0193,0,0,0,0,0,0,0,0,0.0047,0.0043,0.002,0.0016,0.0012,-0.0042,-0.0049,-0.0086,-0.0078,-0.0047,-0.0079,-0.0079,-0.0131,-0.0138,-0.0154,-0.0203,-0.0207,-0.0192,-0.0194,-0.0195,-0.0196,0,0,0,0,0,0,0,0.005,0.0045,0.0015,0.0019,0.0014,-0.0017,-0.0023,-0.0057,-0.0089,-0.005,-0.0053,-0.0057,-0.0133,-0.015,-0.0157,-0.0209,-0.0192,-0.0195,-0.0197,-0.0198,-0.0264,-0.0264,0,0,0,0,0,0,0.0067,0.0048,0.0018,0.0013,0.0032,-0.0017,-0.0024,-0.0026,-0.0088,-0.0097,-0.0057,-0.0059,-0.0144,-0.0152,-0.016,-0.0158,-0.0195,-0.0199,-0.0201,-0.0265,-0.0264,-0.0264,0,0,0,0,0,0,0.0068,0.0065,0.0021,0.0031,0.0023,-0.0017,-0.0019,-0.0027,-0.0039,-0.0093,-0.0103,-0.006,-0.0145,-0.0155,-0.0177,-0.0163,-0.02,-0.0204,-0.0265,-0.0264,-0.0264,-0.017,0,0,0,0,0,0,0.0069,0.0066,0.007,0.0032,0.0023,0.0012,-0.0019,-0.0028,-0.0041,-0.0045,-0.0099,-0.0108,-0.0146,-0.0171,-0.018,-0.0168,-0.0207,-0.0266,-0.0265,-0.0264,-0.0174,-0.0167,-0.016,0,0,0,0,0,0.0071,0.0083,0.0071,0.0067,0.0031,0.0013,0.0005,-0.0026,-0.004,-0.0039,-0.0073,-0.0106,-0.0173,-0.0173,-0.0185,-0.0173,-0.0266,-0.0265,-0.0264,-0.0177,-0.0168,-0.016,0,0,0,0,0,0,0.0103,0.0078,0.0064,0.0068,0.0048,0.0006,0.0004,-0.0018,-0.0045,-0.0048,-0.01,-0.0111,-0.0128,-0.0163,-0.0163,-0.0191,-0.0226,-0.0227,-0.0156,-0.0148,-0.0141,-0.0118,-0.021,0,0,0,0,0,0.0113,0.0114,0.0085,0.0088,0.0082,0.0044,0.0033,0.0013,-0.0016,-0.0029,-0.0065,-0.0104,-0.0134,-0.0149,-0.0185,-0.0197,-0.0234,-0.0198,-0.0191,-0.0185,-0.0175,-0.0214,-0.021,-0.026,-0.026,-0.026,0,0,0.0126,0.0113,0.0113,0.0095,0.0075,0.0079,0.0037,0.0028,0.0032,-0.0034,-0.004,-0.0082,-0.0133,-0.0147,-0.0157,-0.0172,-0.0191,-0.0184,-0.0178,-0.0171,-0.0213,-0.0208,-0.0203,-0.026,-0.026,-0.026,0,0,0.0157,0.0142,0.0155,0.0145,0.0127,0.0107,0.011,0.0076,0.0062,0.0049,0.0005,-0.0023,-0.0072,-0.01,-0.0123,-0.01,-0.0155,-0.0115,-0.0058,-0.0096,-0.0092,-0.0088,-0.0128,-0.0129,-0.0108,-0.0108,-0.0108,0,0.0174,0.0187,0.0156,0.0169,0.0172,0.0127,0.0149,0.0127,0.0091,0.0091,0.006,-0.0003,-0.0049,-0.006,-0.0054,-0.0083,-0.0115,-0.0082,-0.0085,-0.0083,-0.0081,-0.0123,-0.0126,-0.0103,-0.0104,-0.0104,-0.0105,0,0.0213,0.0227,0.0236,0.0239,0.0238,0.0248,0.0223,0.0218,0.0193,0.0172,0.0152,0.0086,0.0053,0.0029,-0.0007,-0.0012,-0.0043,-0.0073,-0.0101,-0.007,-0.0117,-0.0121,-0.0097,-0.0098,-0.01,-0.0101,0,0,0.0248,0.0262,0.0266,0.0291,0.028,0.0289,0.0297,0.0299,0.0325,0.0265,0.028,0.0212,0.0176,0.0148,0.0094,0.0057,0.0035,0.0006,0.0002,-0.0024,-0.0049,-0.0076,-0.0084,0.0006,0.0006,0.0006,-0.0086,0,0.0291,0.034,0.0331,0.0385,0.0413,0.0388,0.0405,0.04,0.0389,0.0391,0.0312,0.0306,0.0221,0.0215,0.0161,0.007,0.0028,0.0062,-0.0084,-0.0088,-0.0107,-0.0088,-0.005,-0.0128,-0.009,-0.0091,-0.0092,0,0.0339,0.0367,0.0427,0.0476,0.0486,0.051,0.0551,0.0567,0.0552,0.0542,0.0507,0.0447,0.0383,0.0308,0.0159,0.0185,0.008,-0.0001,-0.0007,-0.0066,-0.0122,-0.0155,-0.0138,-0.0099,-0.0099,-0.0098,-0.0098,0,0.0394,0.0443,0.05,0.0513,0.0549,0.0578,0.0603,0.0616,0.0658,0.0651,0.0671,0.0571,0.0538,0.0385,0.0202,0.0186,0.0033,-0.0013,-0.0139,-0.0143,-0.0156,-0.016,-0.0113,-0.0113,-0.0112,-0.0112,-0.0112,0,0.0453,0.0501,0.0534,0.0567,0.0648,0.0652,0.0748,0.0755,0.079,0.0857,0.076,0.0775,0.0559,0.0437,0.0247,0.0044,0.0063,-0.0123,-0.0164,-0.0124,-0.0124,-0.0136,-0.0138,-0.0116,-0.0115,-0.0114,-0.0114,0,0.0509,0.0526,0.06,0.0652,0.0679,0.0743,0.0848,0.0919,0.0938,0.1017,0.102,0.0937,0.0782,0.0546,0.031,0.0128,-0.0077,-0.0154,-0.0093,-0.0126,-0.0243,-0.0239,-0.0305,-0.0306,-0.0308,-0.0309,-0.031,0,0.0544,0.0587,0.0667,0.0726,0.0757,0.0858,0.0931,0.0986,0.1076,0.1119,0.1158,0.1046,0.0971,0.0605,0.0284,-0.0045,-0.0086,-0.0218,-0.0248,-0.0227,-0.0261,-0.0254,-0.0248,-0.0234,-0.0234,-0.0234,-0.0235,0,0.0615,0.0638,0.0698,0.0813,0.0901,0.1017,0.1131,0.1218,0.1288,0.1349,0.1397,0.1338,0.0999,0.0682,0.0243,0.0025,-0.0169,-0.0234,-0.0221,-0.0188,-0.0167,-0.0198,-0.0193,-0.0237,-0.0236,-0.0236,-0.0236,-0.0236,0.0667,0.0717,0.0795,0.0908,0.1019,0.1156,0.1263,0.1388,0.1523,0.1605,0.1553,0.1479,0.1114,0.0559,0.0178,-0.0195,-0.0184,-0.0317,-0.0313,-0.031,-0.0282,-0.0264,-0.0347,-0.0348,-0.0348,-0.0349,-0.0349,0,0.0725,0.0779,0.0889,0.1012,0.1133,0.1191,0.138,0.1487,0.1644,0.1709,0.173,0.1384,0.1025,0.0616,0.0061,-0.0289,-0.0306,-0.0391,-0.0336,-0.0331,-0.0328,-0.0299,-0.037,-0.0372,-0.0373,-0.0374,0,0,0.0755,0.0851,0.0897,0.1078,0.1178,0.1352,0.1464,0.1618,0.1727,0.1777,0.1747,0.1645,0.1157,0.0747,0.027,-0.0045,-0.0104,-0.0104,-0.0047,0.0079,0.0087,-0.0245,-0.0191,0,0,0,0,0]}],[{"header":{"parameterUnit":"m.s-1","parameterCategory":2,"la1":30.2991,"la2":30.254,"lo1":-89.0895,"lo2":-89.0444,"dy":0.0017,"dx":0.0017,"nx":28,"ny":28,"refTime":"2025-07-23T21:00:00:Z","depth":"4","parameterNumber":2,"parameterNumberName":"U-component_of_CURRENTS"},"data":[0,0,0,0,0,0,0,0,0,0,0,0,0,0,0,0,0,0,0,0,0,0,0,0,0,0,0,0,0,0,0,0,0,0,0,0,0,0,0,0,0,0,0,0,0,0,0,0,0,0,0,0,0,0,0,0,0,0,0.1791,0.1792,0,0.1871,0.1872,0.1873,0.1934,0.1935,0.1936,0.1937,0.2027,0.2029,0.203,0,0,0,0,0,0,0,0,0,0,0,0,0,0.1675,0.1677,0.1791,0.1792,0.1794,0.1871,0.1872,0.1873,0.1934,0.1935,0.1936,0.1937,0.2026,0.2028,0.203,0,0,0,0,0,0,0,0,0,0,0,0,0,0.1735,0.1677,0.1791,0.1836,0.184,0.1871,0.1872,0.1873,0.1934,0.1935,0.1936,0.1938,0.2026,0.2028,0.2031,0.2022,0,0,0.2038,0.2039,0,0,0,0,0,0,0,0,0.1731,0.1739,0.1828,0.1833,0.1838,0.1896,0.1865,0.1924,0.1934,0.1896,0.1937,0.1938,0.1985,0.1991,0.2,0.2026,0.203,0.2038,0.204,0.2041,0.2042,0,0,0,0,0,0,0,0.1727,0.1736,0.182,0.1829,0.1835,0.1846,0.1856,0.1876,0.1931,0.1899,0.1904,0.1917,0.1988,0.1997,0.2002,0.2031,0.2038,0.2041,0.2042,0.2043,0.2176,0.2178,0,0,0,0,0,0,0.1722,0.1732,0.1818,0.1823,0.179,0.1848,0.1858,0.1874,0.1931,0.1941,0.1916,0.192,0.1992,0.1999,0.2006,0.2109,0.2041,0.2043,0.2045,0.2174,0.2177,0.2179,0,0,0,0,0,0,0.172,0.1729,0.1815,0.1781,0.1793,0.1849,0.1866,0.1875,0.1926,0.1944,0.1954,0.1962,0.1993,0.2002,0.2063,0.2108,0.2044,0.2047,0.2172,0.2175,0.2178,0.2244,0,0,0,0,0,0,0.1716,0.1728,0.1755,0.1781,0.1795,0.1859,0.1865,0.1876,0.193,0.1937,0.1985,0.1993,0.1995,0.206,0.2066,0.2111,0.2049,0.2169,0.2173,0.2177,0.2239,0.2249,0.2257,0,0,0,0,0,0.1711,0.1737,0.1756,0.1768,0.1825,0.1861,0.187,0.191,0.1932,0.1959,0.1998,0.1993,0.2089,0.2063,0.207,0.2117,0.2167,0.2172,0.2176,0.2235,0.2247,0.2257,0,0,0,0,0,0,0.1702,0.1746,0.1768,0.1808,0.1846,0.1873,0.1909,0.1932,0.1983,0.2004,0.2016,0.2027,0.2099,0.2098,0.207,0.2167,0.2128,0.2135,0.2171,0.2182,0.2191,0.2188,0.2051,0,0,0,0,0,0.1711,0.1747,0.1784,0.1822,0.1845,0.1884,0.1912,0.194,0.1979,0.2005,0.2039,0.2078,0.2115,0.2142,0.2172,0.2221,0.2224,0.2257,0.2266,0.2273,0.2277,0.2324,0.2338,0.2194,0.2194,0.2194,0,0,0.1717,0.1749,0.177,0.1824,0.1859,0.1895,0.1905,0.196,0.2,0.2005,0.2084,0.2115,0.2137,0.2198,0.223,0.2208,0.2317,0.2279,0.2286,0.2285,0.2331,0.2344,0.2357,0.2197,0.2197,0.2196,0,0,0.1734,0.178,0.1812,0.1847,0.191,0.1932,0.1957,0.201,0.2051,0.2116,0.2137,0.2196,0.225,0.2277,0.2294,0.2369,0.2366,0.2388,0.2431,0.2477,0.2489,0.25,0.2523,0.2535,0.239,0.239,0.239,0,0.1745,0.1789,0.1827,0.1866,0.1903,0.1953,0.1993,0.2035,0.2104,0.2142,0.2155,0.2264,0.2285,0.2355,0.2385,0.239,0.241,0.2385,0.2488,0.2499,0.2508,0.253,0.2543,0.2394,0.2393,0.2393,0.2393,0,0.1773,0.1824,0.185,0.1915,0.1957,0.2005,0.206,0.2117,0.2173,0.2212,0.2312,0.235,0.2413,0.2434,0.2433,0.2519,0.2509,0.2495,0.2457,0.2527,0.2545,0.2557,0.2399,0.2398,0.2397,0.2396,0,0,0.1756,0.1851,0.1865,0.19,0.1991,0.2018,0.21,0.2174,0.223,0.2313,0.2387,0.2465,0.2501,0.2523,0.2544,0.2583,0.2668,0.2575,0.2576,0.2592,0.2768,0.2608,0.2604,0.268,0.2683,0.2685,0.2754,0,0.1773,0.1841,0.1893,0.1964,0.2001,0.2075,0.2135,0.2212,0.229,0.2373,0.2444,0.2525,0.2531,0.2578,0.2624,0.266,0.2703,0.265,0.2703,0.2705,0.2548,0.2614,0.2693,0.2762,0.2765,0.2767,0.2768,0,0.1779,0.1827,0.1895,0.1982,0.2006,0.206,0.2168,0.2228,0.235,0.2418,0.2523,0.2582,0.2679,0.2666,0.2772,0.2744,0.2768,0.2783,0.2786,0.2618,0.2566,0.2679,0.2789,0.2787,0.2786,0.2784,0.2783,0,0.172,0.1824,0.1877,0.191,0.2014,0.2069,0.2132,0.2248,0.2319,0.2461,0.2539,0.2651,0.2725,0.2785,0.2839,0.2821,0.2931,0.2904,0.2781,0.277,0.2863,0.2851,0.2976,0.2976,0.2976,0.2975,0.2975,0,0.1692,0.1736,0.186,0.1882,0.1949,0.2038,0.2123,0.2208,0.2349,0.2423,0.2563,0.2639,0.2764,0.2843,0.287,0.286,0.2965,0.2796,0.2781,0.2889,0.288,0.2871,0.2858,0.2978,0.2977,0.2977,0.2976,0,0.1603,0.1687,0.1749,0.1875,0.192,0.1963,0.2115,0.2166,0.2323,0.2432,0.2491,0.2664,0.2754,0.2853,0.2942,0.288,0.2895,0.2866,0.2981,0.297,0.2693,0.2683,0.2724,0.2719,0.2715,0.2712,0.2709,0,0.1556,0.1584,0.1723,0.1758,0.1821,0.1911,0.1963,0.2131,0.2195,0.2417,0.2449,0.2616,0.2705,0.2706,0.2814,0.2857,0.2832,0.2815,0.2744,0.2688,0.2671,0.2667,0.2663,0.2702,0.2701,0.27,0.2699,0,0.1463,0.1532,0.158,0.1662,0.1728,0.1783,0.1885,0.1929,0.2104,0.2279,0.2361,0.2434,0.2528,0.2596,0.2654,0.2678,0.2808,0.277,0.2778,0.2711,0.2661,0.2647,0.2648,0.2684,0.2686,0.2687,0.2688,0,0.14,0.1408,0.149,0.1541,0.1619,0.1636,0.1702,0.1782,0.1875,0.2132,0.2144,0.2326,0.2482,0.2505,0.2557,0.2572,0.2536,0.245,0.2474,0.2492,0.2387,0.2287,0.2188,0,0,0,0,0,0.1331,0.1325,0.1363,0.1409,0.1479,0.1526,0.1639,0.1712,0.1897,0.1898,0.2027,0.2108,0.2202,0.23,0.2273,0.2459,0.2541,0.2416,0.2452,0.2602,0.2619,0.2519,0,0,0,0,0,0,0.128,0.1313,0.1317,0.1291,0.1303,0.1358,0.1423,0.1538,0.1556,0.176,0.1821,0.1986,0.2107,0.22,0.2235,0.2266,0.2247,0.254,0.2535,0.2593,0.2608,0.2622,0.2525,0,0,0,0,0]},{"header":{"parameterUnit":"m.s-1","parameterCategory":2,"la1":30.2991,"la2":30.254,"lo1":-89.0895,"lo2":-89.0444,"dy":0.0017,"dx":0.0017,"nx":28,"ny":28,"refTime":"2025-07-23T21:00:00:Z","depth":"4","parameterNumber":3,"parameterNumberName":"V-component_of_CURRENTS"},"data":[0,0,0,0,0,0,0,0,0,0,0,0,0,0,0,0,0,0,0,0,0,0,0,0,0,0,0,0,0,0,0,0,0,0,0,0,0,0,0,0,0,0,0,0,0,0,0,0,0,0,0,0,0,0,0,0,0,0,0.002,0.0019,0,-0.0032,-0.0033,-0.0034,-0.0074,-0.0074,-0.0075,-0.0075,-0.015,-0.0152,-0.0153,0,0,0,0,0,0,0,0,0,0,0,0,0,0.0041,0.0041,0.002,0.0019,0.0019,-0.0032,-0.0033,-0.0034,-0.0074,-0.0074,-0.0075,-0.0075,-0.0149,-0.0151,-0.0154,0,0,0,0,0,0,0,0,0,0,0,0,0,0.0014,0.0041,0.002,-0.0006,-0.0009,-0.0032,-0.0033,-0.0034,-0.0074,-0.0074,-0.0075,-0.0075,-0.0149,-0.0151,-0.0154,-0.0163,0,0,-0.0162,-0.0163,0,0,0,0,0,0,0,0,0.0015,0.0013,-0.0002,-0.0005,-0.0008,-0.0046,-0.0053,-0.0078,-0.0074,-0.0051,-0.0075,-0.0075,-0.0116,-0.0121,-0.0132,-0.0166,-0.017,-0.0162,-0.0164,-0.0165,-0.0166,0,0,0,0,0,0,0,0.0017,0.0014,-0.0003,-0.0003,-0.0006,-0.003,-0.0034,-0.0058,-0.0082,-0.0053,-0.0056,-0.0059,-0.0118,-0.0129,-0.0134,-0.0171,-0.0162,-0.0164,-0.0166,-0.0167,-0.0215,-0.0215,0,0,0,0,0,0,0.0029,0.0017,-0.0001,-0.0004,0.0005,-0.003,-0.0035,-0.0034,-0.0082,-0.0089,-0.0059,-0.0061,-0.0125,-0.0131,-0.0137,-0.0137,-0.0165,-0.0167,-0.0169,-0.0215,-0.0215,-0.0214,0,0,0,0,0,0,0.003,0.0029,0.0001,0.0006,0.0001,-0.0029,-0.0029,-0.0035,-0.0045,-0.0085,-0.0093,-0.0062,-0.0125,-0.0133,-0.015,-0.0141,-0.0169,-0.0171,-0.0216,-0.0215,-0.0215,-0.0145,0,0,0,0,0,0,0.0031,0.0029,0.0033,0.0007,0.0001,-0.0003,-0.0029,-0.0036,-0.0046,-0.0049,-0.0091,-0.0098,-0.0126,-0.0146,-0.0152,-0.0145,-0.0173,-0.0216,-0.0215,-0.0215,-0.0148,-0.0143,-0.0138,0,0,0,0,0,0.0032,0.0044,0.0034,0.0032,0.0008,-0.0002,-0.0007,-0.0032,-0.0045,-0.0044,-0.0071,-0.0097,-0.0147,-0.0147,-0.0155,-0.0148,-0.0216,-0.0216,-0.0215,-0.015,-0.0144,-0.0138,0,0,0,0,0,0,0.0057,0.004,0.0029,0.0035,0.0021,-0.0009,-0.0009,-0.0026,-0.0047,-0.0051,-0.0091,-0.01,-0.0112,-0.014,-0.0139,-0.0161,-0.0187,-0.0188,-0.0135,-0.0129,-0.0124,-0.0114,-0.0175,0,0,0,0,0,0.0065,0.0068,0.0047,0.0052,0.0048,0.002,0.0012,-0.0003,-0.0025,-0.0035,-0.0063,-0.0093,-0.0116,-0.0129,-0.0155,-0.0164,-0.0201,-0.0166,-0.0161,-0.0157,-0.0155,-0.0198,-0.0196,-0.0212,-0.0212,-0.0212,0,0,0.0075,0.0067,0.0068,0.0057,0.0043,0.0046,0.0014,0.0009,0.001,-0.0039,-0.0046,-0.0076,-0.0115,-0.0126,-0.0134,-0.0146,-0.0172,-0.0156,-0.0151,-0.0152,-0.0197,-0.0195,-0.0194,-0.0212,-0.0212,-0.0212,0,0,0.01,0.0092,0.0102,0.0096,0.0082,0.0068,0.007,0.0046,0.0033,0.0024,-0.0011,-0.0034,-0.0067,-0.0093,-0.0111,-0.0094,-0.0143,-0.0103,-0.0068,-0.011,-0.0109,-0.0109,-0.0152,-0.0156,-0.01,-0.01,-0.0099,0,0.0113,0.0121,0.0103,0.0112,0.0112,0.0083,0.0095,0.0081,0.0055,0.0048,0.0032,-0.0021,-0.0052,-0.0071,-0.0064,-0.0082,-0.0115,-0.0086,-0.0103,-0.0103,-0.0104,-0.0148,-0.0154,-0.0096,-0.0097,-0.0097,-0.0097,0,0.0141,0.015,0.0157,0.0159,0.0159,0.0164,0.0148,0.0143,0.0125,0.0107,0.0085,0.004,0.0008,-0.0005,-0.0028,-0.0047,-0.0071,-0.009,-0.0115,-0.0098,-0.0146,-0.0153,-0.0091,-0.0092,-0.0093,-0.0094,0,0,0.0164,0.0174,0.0177,0.0186,0.0184,0.0186,0.0194,0.0188,0.0193,0.016,0.0153,0.0113,0.0084,0.0062,0.0023,-0.0011,-0.0043,-0.0046,-0.0049,-0.0083,-0.0137,-0.0131,-0.0139,-0.0064,-0.0065,-0.0066,-0.0168,0,0.0189,0.0217,0.0216,0.0244,0.0256,0.0242,0.0253,0.0245,0.0232,0.0218,0.0166,0.0148,0.0111,0.0097,0.0057,-0.0019,-0.0058,-0.0014,-0.0154,-0.0158,-0.0151,-0.0145,-0.0068,-0.0174,-0.0175,-0.0176,-0.0177,0,0.0213,0.0229,0.0261,0.0283,0.0287,0.0302,0.0313,0.0319,0.0299,0.0288,0.0258,0.0216,0.0164,0.0127,0.0008,0.0038,-0.0041,-0.0104,-0.011,-0.0133,-0.0164,-0.0197,-0.019,-0.0189,-0.0188,-0.0187,-0.0187,0,0.0228,0.026,0.0287,0.0294,0.0315,0.0328,0.0339,0.034,0.0363,0.0331,0.0341,0.0262,0.0229,0.0121,0.0003,0.0002,-0.0138,-0.0159,-0.0232,-0.0234,-0.024,-0.024,-0.0249,-0.0249,-0.0248,-0.0248,-0.0248,0,0.0248,0.027,0.0298,0.0311,0.0354,0.0355,0.0397,0.0398,0.0414,0.0448,0.038,0.0381,0.0228,0.0136,0.0013,-0.0125,-0.0133,-0.0227,-0.0257,-0.0209,-0.0203,-0.0245,-0.0243,-0.0252,-0.0251,-0.025,-0.025,0,0.0257,0.0272,0.0309,0.0343,0.0362,0.0392,0.0456,0.0489,0.0496,0.0535,0.0533,0.0468,0.0348,0.0189,0.0005,-0.0097,-0.024,-0.029,-0.0224,-0.025,-0.0316,-0.0309,-0.0386,-0.0386,-0.0387,-0.0387,-0.0388,0,0.026,0.028,0.034,0.0378,0.0398,0.045,0.0494,0.0526,0.0574,0.0594,0.0617,0.0523,0.0454,0.0208,0.0025,-0.022,-0.0252,-0.0337,-0.0328,-0.0307,-0.0329,-0.0322,-0.0315,-0.0388,-0.0388,-0.0389,-0.0389,0,0.0273,0.0297,0.0333,0.0414,0.047,0.054,0.0606,0.0653,0.0691,0.0698,0.0699,0.0577,0.0435,0.0228,0.0035,-0.0139,-0.0288,-0.0343,-0.0343,-0.0336,-0.0311,-0.0331,-0.0324,-0.039,-0.039,-0.039,-0.039,0,0.0288,0.0319,0.0376,0.0449,0.0528,0.0612,0.0643,0.0701,0.0747,0.0771,0.0764,0.0617,0.0526,0.027,0.0096,-0.008,-0.0128,-0.019,-0.0199,-0.02,-0.0116,-0.0056,-0.0081,0,0,0,0,0,0.03,0.034,0.041,0.0493,0.0577,0.0626,0.0715,0.0742,0.0779,0.0794,0.079,0.0664,0.042,0.0313,0.014,0.0062,-0.0178,-0.0149,-0.0258,-0.04,-0.0398,-0.0331,0,0,0,0,0,0,0.0306,0.0369,0.0407,0.052,0.0585,0.0681,0.074,0.0769,0.0781,0.0792,0.0669,0.0612,0.0372,0.0519,0.0134,0.008,-0.0015,-0.0264,-0.0268,-0.0401,-0.0399,-0.0398,-0.0328,0,0,0,0,0]}]]